Regional Weather Roundup
Issued by NWS

Home | Current Version | Previous Version | Text Only | Print | Product List | Glossary On
Versions: 1 2 3 4 5 6 7 8 9 10 11 12 13 14 15 16 17 18 19 20 21 22 23 24 25 26 27 28 29 30 31 32 33 34 35 36 37 38 39 40 41 42 43 44 45 46 47 48 49 50
047
ASUS42 KKEY 281910
RWRKEY

FLORIDA REGIONAL WEATHER ROUNDUP FOR THE FLORIDA KEYS
NATIONAL WEATHER SERVICE KEY WEST FLORIDA
300 PM EDT SUN AUG 28 2016

...SOUTH FLORIDA AND THE KEYS...

CITY           SKY/WX    TMP DP  RH WIND       PRES   REMARKS
FORT MYERS     PTSUNNY   92  74  55 E16G23    29.86F HX 101
SW REGIONAL AP TSTM      90  75  61 E21G29    29.89S HX 100
NAPLES         MOSUNNY   90  74  59 E16       29.86F HX  99
MIAMI          PTSUNNY   88  75  65 E22       29.89F HX  97
WEST KENDALL   MOSUNNY   88  75  65 SE17G26   29.89F HX  97
HOMESTEAD      SUNNY     87  75  68 E17G23    29.88F HX  97
MARATHON       LGT RAIN  81  78  91 E12G21    29.84S FOG
BOCA CHICA NAS NOT AVBL
KEY WEST INTL  MOSUNNY   87  77  72 E20G28    29.82F HX  99

...INTERNATIONAL WEATHER...

CITY           SKY/WX    TMP DP  RH WIND       PRES   REMARKS
NASSAU BAHAMAS PTSUNNY   88  75  66 SE7       29.94F HX  97
CANCUN MEXICO  PTSUNNY   82  77  83 NW6       29.86F THUNDER HX  91
COZUMEL MEXICO MOSUNNY   88  79  74 N7        29.86F HX 102

ADJACENT COASTAL WATERS...

STATION/POSITION TIME  SKY/WX   TEMP    WIND        PRES    WAVE
                                AIR SEA DIR/SP/G            HT/PER
                 (UTC)          (F)     (DEG/KT/KT) (MB)    (FT/S)
PULASKI SHOAL LI 1900            84      70/ 23/ 25 1010.4F
SAND KEY         1850            84      90/ 22/ 25 1010.0F
LONG KEY         1800            83 87  120/ 24/ 27 1011.1F
FOWEY ROCKS      1900            83 86  130/ 22/ 23 1012.6F

$$




USA.gov is the U.S. government's official web portal to all federal, state and local government web resources and services.